Location: Caracas
(10.5033°N, 66.8422°W)
Time: 19:58:07
(UTC-04:00)

N. Korean satellite - Pass Details

Date: 15 November 2017
Orbit: 460 x 514 km, 97.2° (Epoch: 24 November)

Event Time Altitude Azimuth Distance (km) Brightness Sun altitude
Rises 19:14:32 0° 188° (S) 2,473 10.5 -18.0°
Reaches altitude 10° 19:16:46 10° 201° (SSW) 1,598 9.7 -18.5°
Maximum altitude 19:19:42 27° 260° (W) 917 8.7 -19.2°
Drops below altitude 10° 19:22:39 10° 320° (NW) 1,601 9.5 -19.9°
Sets 19:24:54 0° 333° (NNW) 2,479 10.3 -20.4°
